Language: 


Des rapports , des résumés tant et plus, au choix de chacun....


Données statistiques de la station
Quotidien Rapport Janvier 9, 2018 Unités:  Métrique    Anglais   les deux
« Précédent Jour
Suivant Jour »
Quotidien Hebdomadaire Mensuel Annuel Actuel
  Haut: Bas: Moyen:
Température: -17.8 °C -17.5 °C -16 °C
Pt de rosée: -17.8 °C -17.2 °C -15.9 °C
Humidité: Humidity % 98 % 98 %
Vitesse du vent: 0 km/h 0 km/h 5 km/h
Rafales: 0 km/h - -
Vent:- - SSE
Pression: 0 hPa 34063.2 hPa -
Précipitation: 0 mm    
Historical Graphs
 
 
Données statistiques pour Janvier 9, 2018
Heure Température Point de rosée Pression Vent Vitesse du vent Refales Humidité Pluie (taux horaire)
-17.8 °C -17.8 °C 0 hPa Calm     Humidity % 0 mm
00:00 -16.8 °C -16.7 °C 34337.4 hPa Calm   11.1 km/h 98 % 0 mm
00:01 -16.8 °C -16.7 °C 34337.4 hPa Calm   11.1 km/h 98 % 0 mm
00:03 -16.8 °C -16.7 °C 34337.4 hPa NE 6.4 km/h 10.3 km/h 98 % 0 mm
00:04 -16.8 °C -16.7 °C 34337.4 hPa NE 9.8 km/h 9.8 km/h 98 % 0 mm
00:06 -16.8 °C -16.7 °C 34337.4 hPa ENE 9.8 km/h 10.3 km/h 98 % 0 mm
00:08 -16.8 °C -16.7 °C 34337.4 hPa ENE 8.9 km/h 10.3 km/h 98 % 0 mm
00:09 -16.8 °C -16.7 °C 34337.4 hPa NE 10.3 km/h 10.3 km/h 98 % 0 mm
00:10 -16.8 °C -16.7 °C 34337.4 hPa NE 5.1 km/h 10.3 km/h 98 % 0 mm
00:11 -16.8 °C -16.7 °C 34337.4 hPa Calm   10.3 km/h 98 % 0 mm
00:13 -16.8 °C -16.7 °C 34337.4 hPa ENE 8.9 km/h 10.3 km/h 98 % 0 mm
00:14 -16.8 °C -16.7 °C 34337.4 hPa ENE 8 km/h 11.1 km/h 98 % 0 mm
00:16 -16.8 °C -16.7 °C 34337.4 hPa Calm   11.1 km/h 98 % 0 mm
00:17 -16.8 °C -16.7 °C 34337.4 hPa Calm   11.1 km/h 98 % 0 mm
00:18 -16.8 °C -16.7 °C 34337.4 hPa Calm   11.1 km/h 98 % 0 mm
00:21 -16.8 °C -16.7 °C 34337.4 hPa ENE 6.4 km/h 11.1 km/h 98 % 0 mm
00:22 -16.8 °C -16.7 °C 34337.4 hPa ENE 9.3 km/h 11.1 km/h 98 % 0 mm
00:26 -16.8 °C -16.7 °C 34337.4 hPa Calm   9.8 km/h 98 % 0 mm
00:28 -16.8 °C -16.7 °C 34337.4 hPa Calm   9.8 km/h 98 % 0 mm
00:33 -16.8 °C -16.7 °C 34337.4 hPa ENE 6.4 km/h 9.8 km/h 98 % 0 mm
00:38 -16.8 °C -16.7 °C 34337.4 hPa Calm   9.8 km/h 98 % 0 mm
00:40 -16.8 °C -16.7 °C 34337.4 hPa NE 8.9 km/h 9.8 km/h 98 % 0 mm
00:43 -16.8 °C -16.7 °C 34303.6 hPa Calm   9.3 km/h 98 % 0 mm
00:47 -16.8 °C -16.7 °C 34303.6 hPa ENE 9.8 km/h 12.7 km/h 98 % 0 mm
00:48 -16.8 °C -16.7 °C 34303.6 hPa NE 11.1 km/h 12.7 km/h 98 % 0 mm
00:53 -16.8 °C -16.7 °C 34303.6 hPa NE 9.8 km/h 14 km/h 98 % 0 mm
00:56 -16.8 °C -16.7 °C 34269.7 hPa Calm   14 km/h 98 % 0 mm
00:57 -16.8 °C -16.7 °C 34269.7 hPa Calm   14 km/h 98 % 0 mm
00:59 -16.7 °C -16.7 °C 34269.7 hPa Calm   12.7 km/h 98 % 0 mm
01:00 -16.7 °C -16.7 °C 34269.7 hPa NE 11.1 km/h 12.7 km/h 98 % 0 mm
01:04 -16.7 °C -16.7 °C 34269.7 hPa NE 14.5 km/h 14.5 km/h 98 % 0 mm
01:05 -16.7 °C -16.7 °C 34269.7 hPa NE 12.7 km/h 14.5 km/h 98 % 0 mm
01:06 -16.7 °C -16.7 °C 34269.7 hPa NE 9.3 km/h 14.5 km/h 98 % 0 mm
01:09 -16.7 °C -16.7 °C 34269.7 hPa NE 9.3 km/h 14.5 km/h 98 % 0 mm
01:12 -16.8 °C -16.7 °C 34303.6 hPa ENE 7.6 km/h 14.5 km/h 98 % 0 mm
01:13 -16.8 °C -16.7 °C 34303.6 hPa NE 9.8 km/h 14.5 km/h 98 % 0 mm
01:14 -16.8 °C -16.7 °C 34303.6 hPa NE 11.6 km/h 12.7 km/h 98 % 0 mm
01:15 -16.8 °C -16.7 °C 34303.6 hPa NE 14 km/h 14.5 km/h 98 % 0 mm
01:16 -16.8 °C -16.7 °C 34303.6 hPa NE 11.1 km/h 14.5 km/h 98 % 0 mm
01:19 -16.8 °C -16.7 °C 34303.6 hPa NE 8 km/h 14.5 km/h 98 % 0 mm
01:21 -16.8 °C -16.7 °C 34303.6 hPa Calm   14.5 km/h 98 % 0 mm
01:22 -16.8 °C -16.7 °C 34303.6 hPa Calm   14.5 km/h 98 % 0 mm
01:23 -16.8 °C -16.7 °C 34303.6 hPa Calm   14.5 km/h 98 % 0 mm
01:28 -16.8 °C -16.7 °C 34303.6 hPa Calm   11.1 km/h 98 % 0 mm
01:29 -16.8 °C -16.7 °C 34303.6 hPa Calm   11.1 km/h 98 % 0 mm
01:31 -16.8 °C -16.7 °C 34303.6 hPa NE 7.6 km/h 11.1 km/h 98 % 0 mm
01:33 -16.8 °C -16.7 °C 34303.6 hPa Calm   11.1 km/h 98 % 0 mm
01:35 -16.8 °C -16.7 °C 34303.6 hPa Calm   11.1 km/h 98 % 0 mm
01:38 -16.8 °C -16.7 °C 34303.6 hPa Calm   11.1 km/h 98 % 0 mm
01:39 -16.9 °C -16.7 °C 34303.6 hPa Calm   10.3 km/h 98 % 0 mm
01:42 -16.9 °C -16.7 °C 34303.6 hPa Calm   7.6 km/h 98 % 0 mm
01:47 -16.9 °C -16.7 °C 34303.6 hPa NE 8.9 km/h 8.9 km/h 98 % 0 mm
01:51 -16.9 °C -16.7 °C 34303.6 hPa Calm   8.9 km/h 98 % 0 mm
01:56 -17 °C -17.2 °C 34303.6 hPa Calm   8.9 km/h 98 % 0 mm
01:57 -17 °C -17.2 °C 34269.7 hPa Calm   8.9 km/h 98 % 0 mm
01:59 -17 °C -17.2 °C 34269.7 hPa Calm   5.1 km/h 98 % 0 mm
02:00 -17 °C -17.2 °C 34269.7 hPa Calm   5.1 km/h 98 % 0 mm
02:01 -17 °C -17.2 °C 34269.7 hPa Calm   2.3 km/h 98 % 0 mm
02:03 -17 °C -17.2 °C 34269.7 hPa Calm   2.3 km/h 98 % 0 mm
02:06 -17 °C -17.2 °C 34269.7 hPa NNE 8 km/h 8.9 km/h 98 % 0 mm
02:07 -17 °C -17.2 °C 34269.7 hPa NNE 2.9 km/h 8.9 km/h 98 % 0 mm
02:08 -17 °C -17.2 °C 34269.7 hPa NNE 5.6 km/h 8.9 km/h 98 % 0 mm
02:09 -16.9 °C -16.7 °C 34269.7 hPa North 6.9 km/h 9.3 km/h 98 % 0 mm
02:12 -16.9 °C -16.7 °C 34269.7 hPa NE 9.3 km/h 9.8 km/h 98 % 0 mm
02:13 -16.9 °C -16.7 °C 34269.7 hPa North 12.2 km/h 15 km/h 98 % 0 mm
02:14 -17 °C -17.2 °C 34269.7 hPa NNE 12.7 km/h 15 km/h 98 % 0 mm
02:16 -17 °C -17.2 °C 34269.7 hPa NNE 8 km/h 15 km/h 98 % 0 mm
02:17 -17 °C -17.2 °C 34269.7 hPa NNE 8 km/h 15 km/h 98 % 0 mm
02:18 -17 °C -17.2 °C 34269.7 hPa NNW 11.1 km/h 15 km/h 98 % 0 mm
02:20 -17 °C -17.2 °C 34269.7 hPa NNE 8.9 km/h 15 km/h 98 % 0 mm
02:21 -17 °C -17.2 °C 34269.7 hPa North 10.3 km/h 15 km/h 98 % 0 mm
02:22 -17 °C -17.2 °C 34269.7 hPa North 10.3 km/h 15 km/h 98 % 0 mm
02:23 -17 °C -17.2 °C 34269.7 hPa NNE 7.6 km/h 14 km/h 98 % 0 mm
02:25 -17 °C -17.2 °C 34269.7 hPa NNE 7.6 km/h 12.2 km/h 98 % 0 mm
02:26 -17 °C -17.2 °C 34235.8 hPa NNE 8.9 km/h 12.2 km/h 98 % 0 mm
02:30 -17 °C -17.2 °C 34235.8 hPa NNE 10.3 km/h 15.6 km/h 98 % 0 mm
02:31 -17 °C -17.2 °C 34235.8 hPa NE 2.9 km/h 15.6 km/h 98 % 0 mm
02:32 -17 °C -17.2 °C 34235.8 hPa North 6.9 km/h 15.6 km/h 98 % 0 mm
02:33 -17 °C -17.2 °C 34235.8 hPa NNE 6.4 km/h 15.6 km/h 98 % 0 mm
02:38 -17 °C -17.2 °C 34235.8 hPa NNE 9.3 km/h 15.6 km/h 98 % 0 mm
02:39 -17 °C -17.2 °C 34235.8 hPa NNE 10.3 km/h 16.3 km/h 98 % 0 mm
02:43 -17 °C -17.2 °C 34269.7 hPa NE 6.9 km/h 16.3 km/h 98 % 0 mm
02:44 -17 °C -17.2 °C 34269.7 hPa Calm   16.3 km/h 98 % 0 mm
02:48 -17 °C -17.2 °C 34269.7 hPa NNE 9.3 km/h 16.3 km/h 98 % 0 mm
02:49 -17 °C -17.2 °C 34269.7 hPa NNE 9.8 km/h 12.7 km/h 98 % 0 mm
02:51 -17.1 °C -17.2 °C 34269.7 hPa NE 4.2 km/h 12.7 km/h 98 % 0 mm
02:54 -17.1 °C -17.2 °C 34269.7 hPa NNE 9.3 km/h 12.7 km/h 98 % 0 mm
02:55 -17.1 °C -17.2 °C 34269.7 hPa NE 4.2 km/h 12.7 km/h 98 % 0 mm
02:58 -17.1 °C -17.2 °C 34269.7 hPa Calm   10.3 km/h 98 % 0 mm
03:04 -17.1 °C -17.2 °C 34269.7 hPa NNE 10.3 km/h 11.1 km/h 98 % 0 mm
03:08 -17.2 °C -17.2 °C 34269.7 hPa NE 11.1 km/h 11.1 km/h 98 % 0 mm
03:09 -17.2 °C -17.2 °C 34269.7 hPa NE 9.3 km/h 11.1 km/h 98 % 0 mm
03:11 -17.2 °C -17.2 °C 34269.7 hPa NNE 9.3 km/h 14 km/h 98 % 0 mm
03:12 -17.1 °C -17.2 °C 34269.7 hPa Calm   14 km/h 98 % 0 mm
03:13 -17.1 °C -17.2 °C 34269.7 hPa Calm   14 km/h 98 % 0 mm
03:16 -17.2 °C -17.2 °C 34269.7 hPa Calm   14 km/h 98 % 0 mm
03:18 -17.2 °C -17.2 °C 34269.7 hPa Calm   14 km/h 98 % 0 mm
03:21 -17.2 °C -17.2 °C 34269.7 hPa Calm   3.4 km/h 98 % 0 mm
03:23 -17.2 °C -17.2 °C 34269.7 hPa Calm     98 % 0 mm
03:24 -17.2 °C -17.2 °C 34269.7 hPa NNE 2.3 km/h 8 km/h 98 % 0 mm
03:26 -17.2 °C -17.2 °C 34235.8 hPa NNE 5.1 km/h 8 km/h 98 % 0 mm
03:28 -17.2 °C -17.2 °C 34235.8 hPa NE 3.4 km/h 9.3 km/h 98 % 0 mm
03:29 -17.2 °C -17.2 °C 34235.8 hPa Calm   9.3 km/h 98 % 0 mm
03:30 -17.2 °C -17.2 °C 34235.8 hPa Calm   9.3 km/h 98 % 0 mm
03:31 -17.2 °C -17.2 °C 34235.8 hPa Calm   9.3 km/h 98 % 0 mm
03:33 -17.2 °C -17.2 °C 34235.8 hPa Calm   9.3 km/h 98 % 0 mm
03:34 -17.2 °C -17.2 °C 34235.8 hPa North 6.9 km/h 9.3 km/h 98 % 0 mm
03:36 -17.2 °C -17.2 °C 34235.8 hPa Calm   9.3 km/h 98 % 0 mm
03:37 -17.2 °C -17.2 °C 34235.8 hPa NNE 9.3 km/h 9.3 km/h 98 % 0 mm
03:38 -17.2 °C -17.2 °C 34235.8 hPa NNE 9.8 km/h 11.1 km/h 98 % 0 mm
03:40 -17.2 °C -17.2 °C 34235.8 hPa NNE 10.3 km/h 11.1 km/h 98 % 0 mm
03:41 -17.2 °C -17.2 °C 34235.8 hPa NNE 6.4 km/h 11.1 km/h 98 % 0 mm
03:42 -17.2 °C -17.2 °C 34235.8 hPa NNE 9.3 km/h 11.1 km/h 98 % 0 mm
03:44 -17.2 °C -17.2 °C 34235.8 hPa NE 9.8 km/h 11.1 km/h 98 % 0 mm
03:48 -17.2 °C -17.2 °C 34235.8 hPa Calm   10.3 km/h 98 % 0 mm
03:50 -17.2 °C -17.2 °C 34235.8 hPa Calm   10.3 km/h 98 % 0 mm
03:54 -17.2 °C -17.2 °C 34235.8 hPa Calm   9.8 km/h 98 % 0 mm
03:56 -17.2 °C -17.2 °C 34235.8 hPa Calm   8.9 km/h 98 % 0 mm
03:59 -17.2 °C -17.2 °C 34235.8 hPa Calm     98 % 0 mm
04:00 -17.2 °C -17.2 °C 34235.8 hPa Calm     98 % 0 mm
04:02 -17.2 °C -17.2 °C 34235.8 hPa NE 4.2 km/h 4.2 km/h 98 % 0 mm
04:03 -17.2 °C -17.2 °C 34235.8 hPa Calm   6.4 km/h 98 % 0 mm
04:04 -17.2 °C -17.2 °C 34235.8 hPa Calm   6.4 km/h 98 % 0 mm
04:06 -17.2 °C -17.2 °C 34235.8 hPa Calm   6.4 km/h 98 % 0 mm
04:08 -17.2 °C -17.2 °C 34235.8 hPa Calm   6.4 km/h 98 % 0 mm
04:09 -17.2 °C -17.2 °C 34235.8 hPa Calm   6.4 km/h 98 % 0 mm
04:13 -17.2 °C -17.2 °C 34235.8 hPa Calm     98 % 0 mm
04:14 -17.2 °C -17.2 °C 34235.8 hPa Calm     98 % 0 mm
04:18 -17.2 °C -17.2 °C 34235.8 hPa Calm     98 % 0 mm
04:19 -17.2 °C -17.2 °C 34235.8 hPa Calm     98 % 0 mm
04:20 -17.2 °C -17.2 °C 34235.8 hPa Calm     98 % 0 mm
04:21 -17.2 °C -17.2 °C 34235.8 hPa Calm     98 % 0 mm
04:22 -17.2 °C -17.2 °C 34235.8 hPa Calm     98 % 0 mm
04:23 -17.2 °C -17.2 °C 34235.8 hPa Calm     98 % 0 mm
04:24 -17.2 °C -17.2 °C 34235.8 hPa Calm     98 % 0 mm
04:25 -17.2 °C -17.2 °C 34235.8 hPa Calm     98 % 0 mm
04:26 -17.2 °C -17.2 °C 34235.8 hPa Calm     98 % 0 mm
04:29 -17.2 °C -17.2 °C 34235.8 hPa Calm   5.6 km/h 98 % 0 mm
04:30 -17.2 °C -17.2 °C 34235.8 hPa Calm   5.6 km/h 98 % 0 mm
04:33 -17.2 °C -17.2 °C 34235.8 hPa Calm   5.6 km/h 98 % 0 mm
04:34 -17.2 °C -17.2 °C 34235.8 hPa Calm   5.6 km/h 98 % 0 mm
04:35 -17.2 °C -17.2 °C 34235.8 hPa Calm   5.6 km/h 98 % 0 mm
04:36 -17.2 °C -17.2 °C 34235.8 hPa Calm   5.6 km/h 98 % 0 mm
04:37 -17.2 °C -17.2 °C 34235.8 hPa Calm     98 % 0 mm
04:38 -17.2 °C -17.2 °C 34235.8 hPa Calm     98 % 0 mm
04:41 -17.2 °C -17.2 °C 34235.8 hPa Calm     98 % 0 mm
04:42 -17.2 °C -17.2 °C 34235.8 hPa NNE 5.1 km/h 7.6 km/h 98 % 0 mm
04:44 -17.2 °C -17.2 °C 34235.8 hPa Calm   8 km/h 98 % 0 mm
04:46 -17.2 °C -17.2 °C 34235.8 hPa Calm   8 km/h 98 % 0 mm
04:48 -17.2 °C -17.2 °C 34235.8 hPa Calm   8 km/h 98 % 0 mm
04:49 -17.2 °C -17.2 °C 34235.8 hPa Calm   8 km/h 98 % 0 mm
04:50 -17.2 °C -17.2 °C 34235.8 hPa Calm   8 km/h 98 % 0 mm
04:52 -17.2 °C -17.2 °C 34235.8 hPa Calm   8 km/h 98 % 0 mm
04:55 -17.2 °C -17.2 °C 34235.8 hPa Calm   6.9 km/h 98 % 0 mm
04:56 -17.2 °C -17.2 °C 34235.8 hPa Calm   6.9 km/h 98 % 0 mm
04:59 -17.2 °C -17.2 °C 34235.8 hPa Calm   6.9 km/h 98 % 0 mm
05:00 -17.2 °C -17.2 °C 34235.8 hPa Calm   6.9 km/h 98 % 0 mm
05:02 -17.2 °C -17.2 °C 34235.8 hPa Calm   5.6 km/h 98 % 0 mm
05:03 -17.2 °C -17.2 °C 34235.8 hPa Calm   5.6 km/h 98 % 0 mm
05:08 -17.2 °C -17.2 °C 34235.8 hPa Calm   6.9 km/h 98 % 0 mm
05:09 -17.2 °C -17.2 °C 34235.8 hPa Calm   6.9 km/h 98 % 0 mm
05:11 -17.2 °C -17.2 °C 34198.6 hPa Calm   6.9 km/h 98 % 0 mm
05:14 -17.2 °C -17.2 °C 34198.6 hPa Calm   6.9 km/h 98 % 0 mm
05:16 -17.2 °C -17.2 °C 34198.6 hPa Calm     98 % 0 mm
05:17 -17.2 °C -17.2 °C 34198.6 hPa Calm     98 % 0 mm
05:20 -17.2 °C -17.2 °C 34198.6 hPa Calm     98 % 0 mm
05:23 -17.3 °C -17.2 °C 34198.6 hPa Calm     98 % 0 mm
05:24 -17.3 °C -17.2 °C 34198.6 hPa Calm     98 % 0 mm
05:25 -17.3 °C -17.2 °C 34198.6 hPa Calm     98 % 0 mm
05:26 -17.3 °C -17.2 °C 34198.6 hPa Calm     98 % 0 mm
05:28 -17.3 °C -17.2 °C 34198.6 hPa Calm     98 % 0 mm
05:29 -17.3 °C -17.2 °C 34198.6 hPa Calm     98 % 0 mm
05:32 -17.3 °C -17.2 °C 34198.6 hPa Calm     98 % 0 mm
05:34 -17.3 °C -17.2 °C 34198.6 hPa Calm     98 % 0 mm
05:36 -17.3 °C -17.2 °C 34198.6 hPa Calm     98 % 0 mm
05:37 -17.3 °C -17.2 °C 34198.6 hPa Calm     98 % 0 mm
05:39 -17.3 °C -17.2 °C 34198.6 hPa Calm     98 % 0 mm
05:40 -17.3 °C -17.2 °C 34198.6 hPa Calm   6.4 km/h 98 % 0 mm
05:41 -17.3 °C -17.2 °C 34164.7 hPa Calm   6.4 km/h 98 % 0 mm
05:42 -17.3 °C -17.2 °C 34164.7 hPa Calm   6.4 km/h 98 % 0 mm
05:43 -17.3 °C -17.2 °C 34164.7 hPa Calm   6.4 km/h 98 % 0 mm
05:45 -17.3 °C -17.2 °C 34164.7 hPa Calm   6.4 km/h 98 % 0 mm
05:46 -17.3 °C -17.2 °C 34164.7 hPa Calm   6.4 km/h 98 % 0 mm
05:47 -17.3 °C -17.2 °C 34164.7 hPa Calm   6.4 km/h 98 % 0 mm
05:48 -17.3 °C -17.2 °C 34164.7 hPa Calm   6.4 km/h 98 % 0 mm
05:49 -17.3 °C -17.2 °C 34164.7 hPa NE 5.1 km/h 6.4 km/h 98 % 0 mm
05:50 -17.3 °C -17.2 °C 34164.7 hPa Calm   6.4 km/h 98 % 0 mm
05:51 -17.3 °C -17.2 °C 34164.7 hPa Calm   5.1 km/h 98 % 0 mm
05:53 -17.3 °C -17.2 °C 34164.7 hPa Calm   5.1 km/h 98 % 0 mm
05:55 -17.3 °C -17.2 °C 34164.7 hPa Calm   5.1 km/h 98 % 0 mm
05:56 -17.3 °C -17.2 °C 34164.7 hPa Calm   5.1 km/h 98 % 0 mm
05:59 -17.4 °C -17.2 °C 34164.7 hPa Calm   5.1 km/h 98 % 0 mm
06:00 -17.4 °C -17.2 °C 34164.7 hPa Calm   5.1 km/h 98 % 0 mm
06:01 -17.4 °C -17.2 °C 34164.7 hPa Calm   5.1 km/h 98 % 0 mm
06:03 -17.4 °C -17.2 °C 34164.7 hPa Calm   5.1 km/h 98 % 0 mm
06:05 -17.4 °C -17.2 °C 34164.7 hPa Calm     98 % 0 mm
06:06 -17.4 °C -17.2 °C 34164.7 hPa Calm     98 % 0 mm
06:07 -17.4 °C -17.2 °C 34164.7 hPa Calm     98 % 0 mm
06:10 -17.4 °C -17.2 °C 34164.7 hPa Calm     98 % 0 mm
06:11 -17.4 °C -17.2 °C 34198.6 hPa Calm     98 % 0 mm
06:12 -17.4 °C -17.2 °C 34198.6 hPa Calm     98 % 0 mm
06:14 -17.4 °C -17.2 °C 34198.6 hPa Calm     98 % 0 mm
06:15 -17.4 °C -17.2 °C 34198.6 hPa Calm     98 % 0 mm
06:16 -17.4 °C -17.2 °C 34198.6 hPa Calm     98 % 0 mm
06:17 -17.4 °C -17.2 °C 34198.6 hPa Calm     98 % 0 mm
06:19 -17.4 °C -17.2 °C 34198.6 hPa Calm     98 % 0 mm
06:20 -17.4 °C -17.2 °C 34198.6 hPa Calm     98 % 0 mm
06:21 -17.4 °C -17.2 °C 34198.6 hPa Calm     98 % 0 mm
06:22 -17.4 °C -17.2 °C 34198.6 hPa Calm     98 % 0 mm
06:23 -17.4 °C -17.2 °C 34198.6 hPa Calm     98 % 0 mm
06:24 -17.4 °C -17.2 °C 34198.6 hPa NE 5.1 km/h 5.1 km/h 98 % 0 mm
06:26 -17.4 °C -17.2 °C 34198.6 hPa NNE 5.6 km/h 5.6 km/h 98 % 0 mm
06:27 -17.4 °C -17.2 °C 34164.7 hPa North 6.4 km/h 6.4 km/h 98 % 0 mm
06:28 -17.4 °C -17.2 °C 34164.7 hPa North 7.6 km/h 7.6 km/h 98 % 0 mm
06:29 -17.4 °C -17.2 °C 34164.7 hPa Calm   9.3 km/h 98 % 0 mm
06:30 -17.4 °C -17.2 °C 34164.7 hPa North 5.6 km/h 9.3 km/h 98 % 0 mm
06:31 -17.4 °C -17.2 °C 34164.7 hPa Calm   9.3 km/h 98 % 0 mm
06:32 -17.4 °C -17.2 °C 34164.7 hPa Calm   9.3 km/h 98 % 0 mm
06:33 -17.4 °C -17.2 °C 34164.7 hPa Calm   9.3 km/h 98 % 0 mm
06:35 -17.4 °C -17.2 °C 34164.7 hPa Calm   9.3 km/h 98 % 0 mm
06:36 -17.4 °C -17.2 °C 34164.7 hPa Calm   9.3 km/h 98 % 0 mm
06:38 -17.4 °C -17.2 °C 34164.7 hPa Calm   9.3 km/h 98 % 0 mm
06:39 -17.4 °C -17.2 °C 34164.7 hPa NNE 5.6 km/h 8.9 km/h 98 % 0 mm
06:40 -17.4 °C -17.2 °C 34164.7 hPa Calm   6.4 km/h 98 % 0 mm
06:42 -17.4 °C -17.2 °C 34198.6 hPa Calm   6.4 km/h 98 % 0 mm
06:43 -17.4 °C -17.2 °C 34198.6 hPa NNE 6.4 km/h 8 km/h 98 % 0 mm
06:44 -17.4 °C -17.2 °C 34198.6 hPa NE 6.4 km/h 8 km/h 98 % 0 mm
06:45 -17.4 °C -17.2 °C 34198.6 hPa NNE 7.6 km/h 8 km/h 98 % 0 mm
06:46 -17.4 °C -17.2 °C 34198.6 hPa Calm   8 km/h 98 % 0 mm
06:47 -17.4 °C -17.2 °C 34198.6 hPa Calm   8 km/h 98 % 0 mm
06:49 -17.4 °C -17.2 °C 34198.6 hPa Calm   8 km/h 98 % 0 mm
06:50 -17.4 °C -17.2 °C 34198.6 hPa Calm   8 km/h 98 % 0 mm
06:51 -17.4 °C -17.2 °C 34198.6 hPa Calm   8 km/h 98 % 0 mm
06:53 -17.4 °C -17.2 °C 34198.6 hPa Calm   7.6 km/h 98 % 0 mm
06:54 -17.4 °C -17.2 °C 34198.6 hPa Calm   7.6 km/h 98 % 0 mm
06:57 -17.4 °C -17.2 °C 34164.7 hPa NNE 3.4 km/h 5.6 km/h 98 % 0 mm
06:58 -17.4 °C -17.2 °C 34164.7 hPa Calm   5.6 km/h 98 % 0 mm
06:59 -17.4 °C -17.2 °C 34164.7 hPa Calm   6.4 km/h 98 % 0 mm
07:00 -17.4 °C -17.2 °C 34164.7 hPa NNE 7.6 km/h 9.3 km/h 98 % 0 mm
07:01 -17.4 °C -17.2 °C 34164.7 hPa Calm   9.3 km/h 98 % 0 mm
07:02 -17.4 °C -17.2 °C 34164.7 hPa Calm   9.3 km/h 98 % 0 mm
07:04 -17.5 °C -17.2 °C 34164.7 hPa Calm   9.3 km/h 98 % 0 mm
07:06 -17.5 °C -17.2 °C 34164.7 hPa Calm   9.3 km/h 98 % 0 mm
07:07 -17.5 °C -17.2 °C 34164.7 hPa Calm   9.3 km/h 98 % 0 mm
07:08 -17.5 °C -17.2 °C 34164.7 hPa Calm   9.3 km/h 98 % 0 mm
07:10 -17.5 °C -17.2 °C 34164.7 hPa NE 7.6 km/h 9.3 km/h 98 % 0 mm
07:12 -17.5 °C -17.2 °C 34164.7 hPa Calm   8.9 km/h 98 % 0 mm
07:13 -17.5 °C -17.2 °C 34164.7 hPa Calm   8.9 km/h 98 % 0 mm
07:14 -17.5 °C -17.2 °C 34164.7 hPa Calm   8.9 km/h 98 % 0 mm
07:18 -17.4 °C -17.2 °C 34164.7 hPa Calm   8.9 km/h 98 % 0 mm
07:19 -17.4 °C -17.2 °C 34164.7 hPa Calm   8.9 km/h 98 % 0 mm
07:20 -17.4 °C -17.2 °C 34164.7 hPa Calm   8 km/h 98 % 0 mm
07:21 -17.4 °C -17.2 °C 34164.7 hPa Calm   8 km/h 98 % 0 mm
07:22 -17.4 °C -17.2 °C 34164.7 hPa Calm   7.6 km/h 98 % 0 mm
07:27 -17.3 °C -17.2 °C 34164.7 hPa ENE 6.9 km/h 6.9 km/h 98 % 0 mm
07:29 -17.3 °C -17.2 °C 34164.7 hPa Calm   8.9 km/h 98 % 0 mm
07:30 -17.3 °C -17.2 °C 34164.7 hPa Calm   8.9 km/h 98 % 0 mm
07:31 -17.3 °C -17.2 °C 34164.7 hPa NE 2.3 km/h 9.3 km/h 98 % 0 mm
07:32 -17.3 °C -17.2 °C 34164.7 hPa Calm   9.3 km/h 98 % 0 mm
07:33 -17.3 °C -17.2 °C 34164.7 hPa NE 9.8 km/h 9.8 km/h 98 % 0 mm
07:34 -17.3 °C -17.2 °C 34164.7 hPa ENE 10.3 km/h 10.3 km/h 98 % 0 mm
07:35 -17.3 °C -17.2 °C 34164.7 hPa NE 9.8 km/h 10.3 km/h 98 % 0 mm
07:38 -17.2 °C -17.2 °C 34164.7 hPa NE 9.3 km/h 11.1 km/h 98 % 0 mm
07:40 -17.2 °C -17.2 °C 34164.7 hPa NE 8 km/h 11.1 km/h 98 % 0 mm
07:41 -17.2 °C -17.2 °C 34164.7 hPa NE 9.3 km/h 11.1 km/h 98 % 0 mm
07:42 -17.2 °C -17.2 °C 34164.7 hPa ENE 9.3 km/h 11.1 km/h 98 % 0 mm
07:43 -17.2 °C -17.2 °C 34164.7 hPa ENE 9.3 km/h 11.1 km/h 98 % 0 mm
07:44 -17.2 °C -17.2 °C 34164.7 hPa NE 11.1 km/h 11.1 km/h 98 % 0 mm
07:46 -17.2 °C -17.2 °C 34164.7 hPa Calm   12.2 km/h 98 % 0 mm
07:47 -17.2 °C -17.2 °C 34164.7 hPa Calm   12.2 km/h 98 % 0 mm
07:48 -17.2 °C -17.2 °C 34164.7 hPa Calm   12.2 km/h 98 % 0 mm
07:50 -17.2 °C -17.2 °C 34164.7 hPa Calm   12.2 km/h 98 % 0 mm
07:53 -17.2 °C -17.2 °C 34164.7 hPa Calm   12.2 km/h 98 % 0 mm
07:54 -17.2 °C -17.2 °C 34164.7 hPa Calm     98 % 0 mm
07:56 -17.2 °C -17.2 °C 34164.7 hPa Calm     98 % 0 mm
07:58 -17.2 °C -17.2 °C 34164.7 hPa Calm     98 % 0 mm
07:59 -17.2 °C -17.2 °C 34164.7 hPa NNE 8.9 km/h 8.9 km/h 98 % 0 mm
08:00 -17.3 °C -17.2 °C 34164.7 hPa NE 11.1 km/h 11.1 km/h 98 % 0 mm
08:01 -17.3 °C -17.2 °C 34164.7 hPa NE 11.1 km/h 11.1 km/h 98 % 0 mm
08:04 -17.3 °C -17.2 °C 34164.7 hPa NNE 10.3 km/h 11.1 km/h 98 % 0 mm
08:05 -17.3 °C -17.2 °C 34164.7 hPa Calm   11.1 km/h 98 % 0 mm
08:06 -17.3 °C -17.2 °C 34164.7 hPa NNE 8 km/h 11.1 km/h 98 % 0 mm
08:08 -17.3 °C -17.2 °C 34164.7 hPa NNE 8 km/h 11.1 km/h 98 % 0 mm
08:09 -17.3 °C -17.2 °C 34164.7 hPa Calm   11.1 km/h 98 % 0 mm
08:10 -17.3 °C -17.2 °C 34164.7 hPa Calm   11.1 km/h 98 % 0 mm
08:12 -17.3 °C -17.2 °C 34164.7 hPa NNE 5.1 km/h 10.3 km/h 98 % 0 mm
08:13 -17.3 °C -17.2 °C 34164.7 hPa Calm   10.3 km/h 98 % 0 mm
08:15 -17.3 °C -17.2 °C 34164.7 hPa Calm   9.3 km/h 98 % 0 mm
08:16 -17.3 °C -17.2 °C 34164.7 hPa Calm   8.9 km/h 98 % 0 mm
08:17 -17.3 °C -17.2 °C 34164.7 hPa North 6.9 km/h 8.9 km/h 98 % 0 mm
08:18 -17.3 °C -17.2 °C 34164.7 hPa NNE 8 km/h 9.3 km/h 98 % 0 mm
08:19 -17.3 °C -17.2 °C 34164.7 hPa NE 9.8 km/h 9.8 km/h 98 % 0 mm
08:20 -17.3 °C -17.2 °C 34164.7 hPa NNE 8.9 km/h 9.8 km/h 98 % 0 mm
08:22 -17.3 °C -17.2 °C 34164.7 hPa Calm   9.8 km/h 98 % 0 mm
08:25 -17.3 °C -17.2 °C 34164.7 hPa Calm   9.8 km/h 98 % 0 mm
08:26 -17.3 °C -17.2 °C 34164.7 hPa Calm   9.8 km/h 98 % 0 mm
08:27 -17.3 °C -17.2 °C 34164.7 hPa Calm   9.8 km/h 98 % 0 mm
08:30 -17.3 °C -17.2 °C 34164.7 hPa Calm   8.9 km/h 98 % 0 mm
08:31 -17.3 °C -17.2 °C 34164.7 hPa Calm   8 km/h 98 % 0 mm
08:32 -17.3 °C -17.2 °C 34164.7 hPa ENE 6.9 km/h 8 km/h 98 % 0 mm
08:33 -17.3 °C -17.2 °C 34164.7 hPa ENE 5.6 km/h 8 km/h 98 % 0 mm
08:34 -17.3 °C -17.2 °C 34164.7 hPa Calm   6.9 km/h 98 % 0 mm
08:37 -17.3 °C -17.2 °C 34164.7 hPa Calm   6.9 km/h 98 % 0 mm
08:39 -17.2 °C -17.2 °C 34164.7 hPa Calm   6.9 km/h 98 % 0 mm
08:42 -17.2 °C -17.2 °C 34164.7 hPa Calm   5.6 km/h 98 % 0 mm
08:43 -17.2 °C -17.2 °C 34164.7 hPa Calm     98 % 0 mm
08:44 -17.2 °C -17.2 °C 34164.7 hPa Calm     98 % 0 mm
08:45 -17.2 °C -17.2 °C 34164.7 hPa Calm     98 % 0 mm
08:50 -17.2 °C -17.2 °C 34164.7 hPa Calm     98 % 0 mm
08:51 -17.2 °C -17.2 °C 34164.7 hPa Calm     98 % 0 mm
08:54 -17.2 °C -17.2 °C 34164.7 hPa ENE 6.9 km/h 6.9 km/h 98 % 0 mm
08:55 -17.2 °C -17.2 °C 34164.7 hPa Calm   6.9 km/h 98 % 0 mm
08:56 -17.2 °C -17.2 °C 34164.7 hPa ENE 6.4 km/h 6.9 km/h 98 % 0 mm
08:57 -17.2 °C -17.2 °C 34164.7 hPa Calm   6.9 km/h 98 % 0 mm
08:59 -17.2 °C -17.2 °C 34164.7 hPa Calm   6.9 km/h 98 % 0 mm
09:00 -17.2 °C -17.2 °C 34164.7 hPa ENE 5.6 km/h 6.9 km/h 98 % 0 mm
09:01 -17.2 °C -17.2 °C 34164.7 hPa Calm   6.9 km/h 98 % 0 mm
09:02 -17.2 °C -17.2 °C 34164.7 hPa Calm   6.9 km/h 98 % 0 mm
09:03 -17.2 °C -17.2 °C 34164.7 hPa Calm   6.9 km/h 98 % 0 mm
09:04 -17.2 °C -17.2 °C 34164.7 hPa Calm   6.9 km/h 98 % 0 mm
09:06 -17.2 °C -17.2 °C 34164.7 hPa Calm   6.4 km/h 98 % 0 mm
09:08 -17.2 °C -17.2 °C 34164.7 hPa East 5.1 km/h 5.6 km/h 98 % 0 mm
09:10 -17.2 °C -17.2 °C 34164.7 hPa Calm   5.6 km/h 98 % 0 mm
09:12 -17.2 °C -17.2 °C 34164.7 hPa Calm   5.1 km/h 98 % 0 mm
09:14 -17.2 °C -17.2 °C 34164.7 hPa East 3.4 km/h 5.1 km/h 98 % 0 mm
09:15 -17.2 °C -17.2 °C 34164.7 hPa Calm   5.1 km/h 98 % 0 mm
09:16 -17.2 °C -17.2 °C 34164.7 hPa Calm   5.1 km/h 98 % 0 mm
09:17 -17.2 °C -17.2 °C 34164.7 hPa East 3.4 km/h 5.6 km/h 98 % 0 mm
09:18 -17.1 °C -17.2 °C 34164.7 hPa Calm   5.6 km/h 98 % 0 mm
09:23 -17.1 °C -17.2 °C 34164.7 hPa Calm   5.6 km/h 98 % 0 mm
09:24 -17.1 °C -17.2 °C 34164.7 hPa Calm   5.6 km/h 98 % 0 mm
09:26 -17.1 °C -17.2 °C 34164.7 hPa Calm   5.6 km/h 98 % 0 mm
09:27 -17.1 °C -17.2 °C 34130.9 hPa Calm   5.6 km/h 98 % 0 mm
09:30 -17.1 °C -17.2 °C 34130.9 hPa Calm   5.1 km/h 98 % 0 mm
09:31 -17.1 °C -17.2 °C 34130.9 hPa Calm   5.1 km/h 98 % 0 mm
09:32 -17.1 °C -17.2 °C 34130.9 hPa Calm   5.1 km/h 98 % 0 mm
09:33 -17.1 °C -17.2 °C 34130.9 hPa Calm   5.1 km/h 98 % 0 mm
09:34 -17.1 °C -17.2 °C 34130.9 hPa Calm   5.1 km/h 98 % 0 mm
09:35 -17.1 °C -17.2 °C 34130.9 hPa Calm   5.1 km/h 98 % 0 mm
09:36 -17.1 °C -17.2 °C 34130.9 hPa Calm   5.1 km/h 98 % 0 mm
09:37 -17.1 °C -17.2 °C 34130.9 hPa Calm   5.1 km/h 98 % 0 mm
09:38 -17.1 °C -17.2 °C 34130.9 hPa Calm   5.1 km/h 98 % 0 mm
09:39 -17 °C -17.2 °C 34130.9 hPa Calm     98 % 0 mm
09:40 -17 °C -17.2 °C 34130.9 hPa Calm     98 % 0 mm
09:41 -17 °C -17.2 °C 34164.7 hPa Calm     98 % 0 mm
09:43 -17 °C -17.2 °C 34164.7 hPa Calm   3.4 km/h 98 % 0 mm
09:44 -17 °C -17.2 °C 34164.7 hPa Calm   3.4 km/h 98 % 0 mm
09:45 -17 °C -17.2 °C 34164.7 hPa Calm   3.4 km/h 98 % 0 mm
09:46 -17 °C -17.2 °C 34164.7 hPa Calm   3.4 km/h 98 % 0 mm
09:47 -17 °C -17.2 °C 34164.7 hPa Calm   6.4 km/h 98 % 0 mm
09:48 -16.9 °C -16.7 °C 34164.7 hPa Calm   6.4 km/h 98 % 0 mm
09:49 -16.9 °C -16.7 °C 34164.7 hPa Calm   6.4 km/h 98 % 0 mm
09:51 -16.9 °C -16.7 °C 34164.7 hPa Calm   6.4 km/h 98 % 0 mm
09:52 -16.9 °C -16.7 °C 34164.7 hPa Calm   6.4 km/h 98 % 0 mm
09:53 -16.9 °C -16.7 °C 34164.7 hPa Calm   6.4 km/h 98 % 0 mm
09:54 -16.9 °C -16.7 °C 34164.7 hPa Calm   6.4 km/h 98 % 0 mm
09:56 -16.9 °C -16.7 °C 34130.9 hPa Calm   6.4 km/h 98 % 0 mm
09:57 -16.9 °C -16.7 °C 34130.9 hPa Calm     98 % 0 mm
09:58 -16.9 °C -16.7 °C 34130.9 hPa Calm     98 % 0 mm
09:59 -16.9 °C -16.7 °C 34130.9 hPa Calm     98 % 0 mm
10:00 -16.9 °C -16.7 °C 34130.9 hPa Calm     98 % 0 mm
10:03 -16.9 °C -16.7 °C 34130.9 hPa Calm     98 % 0 mm
10:04 -16.8 °C -16.7 °C 34130.9 hPa Calm     98 % 0 mm
10:05 -16.8 °C -16.7 °C 34130.9 hPa Calm     98 % 0 mm
10:07 -16.8 °C -16.7 °C 34130.9 hPa Calm     98 % 0 mm
10:09 -16.8 °C -16.7 °C 34130.9 hPa Calm     98 % 0 mm
10:10 -16.8 °C -16.7 °C 34130.9 hPa Calm     98 % 0 mm
10:11 -16.7 °C -16.7 °C 34130.9 hPa Calm     98 % 0 mm
10:12 -16.7 °C -16.7 °C 34130.9 hPa Calm     98 % 0 mm
10:15 -16.7 °C -16.7 °C 34130.9 hPa Calm     98 % 0 mm
10:17 -16.7 °C -16.7 °C 34130.9 hPa Calm     98 % 0 mm
10:20 -16.7 °C -16.7 °C 34130.9 hPa Calm     98 % 0 mm
10:21 -16.7 °C -16.7 °C 34130.9 hPa Calm     98 % 0 mm
10:23 -16.6 °C -16.7 °C 34130.9 hPa Calm     98 % 0 mm
10:25 -16.6 °C -16.7 °C 34130.9 hPa Calm     98 % 0 mm
10:26 -16.6 °C -16.7 °C 34130.9 hPa Calm     98 % 0 mm
10:27 -16.6 °C -16.7 °C 34130.9 hPa Calm     98 % 0 mm
10:28 -16.6 °C -16.7 °C 34130.9 hPa East 3.4 km/h 3.4 km/h 98 % 0 mm
10:29 -16.6 °C -16.7 °C 34130.9 hPa Calm   3.4 km/h 98 % 0 mm
10:33 -16.4 °C -16.1 °C 34130.9 hPa Calm   4.2 km/h 98 % 0 mm
10:34 -16.4 °C -16.1 °C 34130.9 hPa Calm   4.2 km/h 98 % 0 mm
10:36 -16.4 °C -16.1 °C 34130.9 hPa NE 4.2 km/h 4.2 km/h 98 % 0 mm
10:37 -16.4 °C -16.1 °C 34130.9 hPa Calm   4.2 km/h 98 % 0 mm
10:38 -16.4 °C -16.1 °C 34130.9 hPa Calm   4.2 km/h 98 % 0 mm
10:39 -16.4 °C -16.1 °C 34130.9 hPa Calm   4.2 km/h 98 % 0 mm
10:40 -16.3 °C -16.1 °C 34130.9 hPa Calm   4.2 km/h 98 % 0 mm
10:41 -16.3 °C -16.1 °C 34130.9 hPa Calm   4.2 km/h 98 % 0 mm
10:42 -16.3 °C -16.1 °C 34130.9 hPa Calm   4.2 km/h 98 % 0 mm
10:43 -16.3 °C -16.1 °C 34130.9 hPa ESE 4.2 km/h 5.6 km/h 98 % 0 mm
10:44 -16.3 °C -16.1 °C 34130.9 hPa Calm   5.6 km/h 98 % 0 mm
10:45 -16.3 °C -16.1 °C 34130.9 hPa ENE 3.4 km/h 5.6 km/h 98 % 0 mm
10:46 -16.3 °C -16.1 °C 34130.9 hPa Calm   5.6 km/h 98 % 0 mm
10:48 -16.3 °C -16.1 °C 34130.9 hPa East 6.4 km/h 6.9 km/h 98 % 0 mm
10:54 -16.2 °C -16.1 °C 34130.9 hPa Calm   6.9 km/h 98 % 0 mm
10:56 -16.2 °C -16.1 °C 34130.9 hPa Calm   6.4 km/h 98 % 0 mm
10:58 -16.1 °C -16.1 °C 34130.9 hPa East 4.2 km/h 6.4 km/h 98 % 0 mm
10:59 -16.1 °C -16.1 °C 34130.9 hPa East 2.3 km/h 4.2 km/h 98 % 0 mm
11:00 -16.1 °C -16.1 °C 34130.9 hPa Calm   4.2 km/h 98 % 0 mm
11:01 -16.1 °C -16.1 °C 34130.9 hPa Calm   5.6 km/h 98 % 0 mm
11:03 -16.1 °C -16.1 °C 34130.9 hPa Calm   5.6 km/h 98 % 0 mm
11:05 -16.1 °C -16.1 °C 34130.9 hPa Calm   5.6 km/h 98 % 0 mm
11:06 -16.1 °C -16.1 °C 34130.9 hPa Calm   5.6 km/h 98 % 0 mm
11:08 -16.1 °C -16.1 °C 34130.9 hPa ESE 4.2 km/h 5.6 km/h 98 % 0 mm
11:09 -16 °C -16.1 °C 34130.9 hPa Calm   5.6 km/h 98 % 0 mm
11:11 -16 °C -16.1 °C 34130.9 hPa Calm   5.6 km/h 98 % 0 mm
11:13 -15.9 °C -16.1 °C 34130.9 hPa Calm   5.1 km/h 98 % 0 mm
11:15 -15.9 °C -16.1 °C 34130.9 hPa Calm   5.1 km/h 98 % 0 mm
11:17 -15.9 °C -16.1 °C 34130.9 hPa Calm   5.1 km/h 98 % 0 mm
11:19 -15.9 °C -16.1 °C 34130.9 hPa Calm     98 % 0 mm
11:21 -15.8 °C -15.6 °C 34130.9 hPa Calm     98 % 0 mm
11:22 -15.8 °C -15.6 °C 34130.9 hPa Calm     98 % 0 mm
11:23 -15.8 °C -15.6 °C 34130.9 hPa Calm     98 % 0 mm
11:26 -15.8 °C -15.6 °C 34130.9 hPa Calm     98 % 0 mm
11:27 -15.8 °C -15.6 °C 34130.9 hPa Calm     98 % 0 mm
11:28 -15.8 °C -15.6 °C 34130.9 hPa Calm     98 % 0 mm
11:30 -15.7 °C -15.6 °C 34130.9 hPa Calm     98 % 0 mm
11:32 -15.7 °C -15.6 °C 34130.9 hPa Calm     98 % 0 mm
11:33 -15.7 °C -15.6 °C 34130.9 hPa Calm     98 % 0 mm
11:37 -15.7 °C -15.6 °C 34130.9 hPa Calm     98 % 0 mm
11:38 -15.7 °C -15.6 °C 34130.9 hPa Calm     98 % 0 mm
11:39 -15.7 °C -15.6 °C 34130.9 hPa Calm     98 % 0 mm
11:41 -15.6 °C -15.6 °C 34130.9 hPa Calm     98 % 0 mm
11:42 -15.6 °C -15.6 °C 34130.9 hPa Calm     98 % 0 mm
11:43 -15.6 °C -15.6 °C 34130.9 hPa Calm     98 % 0 mm
11:44 -15.6 °C -15.6 °C 34130.9 hPa Calm     98 % 0 mm
11:45 -15.6 °C -15.6 °C 34130.9 hPa Calm     98 % 0 mm
11:46 -15.6 °C -15.6 °C 34130.9 hPa Calm     98 % 0 mm
11:47 -15.6 °C -15.6 °C 34130.9 hPa Calm     98 % 0 mm
11:48 -15.6 °C -15.6 °C 34130.9 hPa Calm     98 % 0 mm
11:49 -15.6 °C -15.6 °C 34130.9 hPa Calm     98 % 0 mm
11:50 -15.6 °C -15.6 °C 34130.9 hPa Calm     98 % 0 mm
11:52 -15.5 °C -15.6 °C 34130.9 hPa Calm     98 % 0 mm
11:53 -15.5 °C -15.6 °C 34130.9 hPa SSE 6.4 km/h 10.3 km/h 98 % 0 mm
11:54 -15.5 °C -15.6 °C 34130.9 hPa Calm   10.3 km/h 98 % 0 mm
11:55 -15.5 °C -15.6 °C 34130.9 hPa Calm   10.3 km/h 98 % 0 mm
11:56 -15.5 °C -15.6 °C 34130.9 hPa Calm   10.3 km/h 98 % 0 mm
11:58 -15.5 °C -15.6 °C 34130.9 hPa SSE 9.3 km/h 15.6 km/h 98 % 0 mm
11:59 -15.5 °C -15.6 °C 34130.9 hPa Calm   15.6 km/h 98 % 0 mm
12:00 -15.4 °C -15.6 °C 34130.9 hPa South 15 km/h 15.6 km/h 98 % 0 mm
12:04 -15.4 °C -15.6 °C 34130.9 hPa SSE 15 km/h 16.9 km/h 98 % 0 mm
12:05 -15.4 °C -15.6 °C 34130.9 hPa SSW 9.3 km/h 16.9 km/h 98 % 0 mm
12:06 -15.4 °C -15.6 °C 34130.9 hPa South 2.9 km/h 16.9 km/h 98 % 0 mm
12:09 -15.4 °C -15.6 °C 34130.9 hPa SSE 2.9 km/h 16.9 km/h 98 % 0 mm
12:10 -15.4 °C -15.6 °C 34130.9 hPa SSE 11.1 km/h 16.9 km/h 98 % 0 mm
12:12 -15.4 °C -15.6 °C 34130.9 hPa SSE 15 km/h 20.3 km/h 98 % 0 mm
12:14 -15.4 °C -15.6 °C 34130.9 hPa Calm   20.3 km/h 98 % 0 mm
12:15 -15.4 °C -15.6 °C 34130.9 hPa SSE 20.9 km/h 20.9 km/h 98 % 0 mm
12:16 -15.3 °C -15.6 °C 34130.9 hPa South 14.5 km/h 20.9 km/h 98 % 0 mm
12:17 -15.3 °C -15.6 °C 34130.9 hPa Calm   20.9 km/h 98 % 0 mm
12:18 -15.3 °C -15.6 °C 34130.9 hPa Calm   20.9 km/h 98 % 0 mm
12:19 -15.3 °C -15.6 °C 34130.9 hPa Calm   20.9 km/h 98 % 0 mm
12:22 -15.3 °C -15.6 °C 34130.9 hPa Calm   20.9 km/h 98 % 0 mm
12:23 -15.3 °C -15.6 °C 34130.9 hPa South 7.6 km/h 20.9 km/h 98 % 0 mm
12:26 -15.3 °C -15.6 °C 34097 hPa SSE 9.8 km/h 20.9 km/h 98 % 0 mm
12:28 -15.3 °C -15.6 °C 34097 hPa SSE 5.1 km/h 20.9 km/h 98 % 0 mm
12:29 -15.3 °C -15.6 °C 34097 hPa SSE 9.3 km/h 20.9 km/h 98 % 0 mm
12:30 -15.3 °C -15.6 °C 34097 hPa Calm   20.9 km/h 98 % 0 mm
12:31 -15.3 °C -15.6 °C 34097 hPa South 14 km/h 20.9 km/h 98 % 0 mm
12:32 -15.3 °C -15 °C 34097 hPa SSW 7.6 km/h 20.9 km/h 98 % 0 mm
12:33 -15.3 °C -15 °C 34097 hPa SSE 6.9 km/h 20.9 km/h 98 % 0 mm
12:34 -15.3 °C -15 °C 34097 hPa SSE 14.5 km/h 20.9 km/h 98 % 0 mm
12:35 -15.3 °C -15 °C 34097 hPa SSE 17.4 km/h 17.9 km/h 98 % 0 mm
12:36 -15.3 °C -15 °C 34097 hPa South 4.2 km/h 19.2 km/h 98 % 0 mm
12:37 -15.3 °C -15 °C 34097 hPa South 12.7 km/h 19.2 km/h 98 % 0 mm
12:38 -15.3 °C -15 °C 34097 hPa South 12.7 km/h 19.2 km/h 98 % 0 mm
12:41 -15.2 °C -15 °C 34097 hPa Calm   19.2 km/h 98 % 0 mm
12:44 -15.2 °C -15 °C 34097 hPa Calm   19.2 km/h 98 % 0 mm
12:46 -15.2 °C -15 °C 34097 hPa South 12.2 km/h 15 km/h 98 % 0 mm
12:47 -15.2 °C -15 °C 34097 hPa SSW 10.3 km/h 15 km/h 98 % 0 mm
12:50 -15.2 °C -15 °C 34097 hPa South 8 km/h 15 km/h 98 % 0 mm
12:51 -15.2 °C -15 °C 34097 hPa South 11.1 km/h 15 km/h 98 % 0 mm
12:52 -15.2 °C -15 °C 34097 hPa South 6.9 km/h 16.3 km/h 98 % 0 mm
12:54 -15.1 °C -15 °C 34097 hPa South 12.2 km/h 16.3 km/h 98 % 0 mm
12:55 -15.1 °C -15 °C 34097 hPa SSW 10.3 km/h 16.3 km/h 98 % 0 mm
12:57 -15.1 °C -15 °C 34097 hPa SSE 7.6 km/h 16.3 km/h 98 % 0 mm
12:58 -15.1 °C -15 °C 34097 hPa South 11.1 km/h 16.3 km/h 98 % 0 mm
12:59 -15.1 °C -15 °C 34097 hPa South 15 km/h 16.3 km/h 98 % 0 mm
13:00 -15.1 °C -15 °C 34097 hPa Calm   16.3 km/h 98 % 0 mm
13:01 -15.1 °C -15 °C 34097 hPa Calm   16.3 km/h 98 % 0 mm
13:03 -15.1 °C -15 °C 34097 hPa South 9.8 km/h 16.3 km/h 98 % 0 mm
13:04 -15.1 °C -15 °C 34097 hPa SSE 14.5 km/h 18.7 km/h 98 % 0 mm
13:05 -15.1 °C -15 °C 34097 hPa Calm   18.7 km/h 98 % 0 mm
13:06 -15.1 °C -15 °C 34097 hPa South 19.6 km/h 19.6 km/h 98 % 0 mm
13:07 -15.1 °C -15 °C 34097 hPa South 9.3 km/h 19.6 km/h 98 % 0 mm
13:09 -15.1 °C -15 °C 34097 hPa South 9.8 km/h 19.6 km/h 98 % 0 mm
13:10 -15.1 °C -15 °C 34097 hPa South 19.6 km/h 19.6 km/h 98 % 0 mm
13:11 -15.1 °C -15 °C 34097 hPa SSW 16.9 km/h 19.6 km/h 98 % 0 mm
13:12 -15.1 °C -15 °C 34097 hPa SSW 14.5 km/h 19.6 km/h 98 % 0 mm
13:15 -15.1 °C -15 °C 34097 hPa SSW 9.3 km/h 19.6 km/h 98 % 0 mm
13:16 -15.1 °C -15 °C 34097 hPa SSW 10.3 km/h 19.6 km/h 98 % 0 mm
13:17 -15.1 °C -15 °C 34097 hPa SSW 10.3 km/h 19.6 km/h 98 % 0 mm
13:18 -15.1 °C -15 °C 34097 hPa SSW 10.3 km/h 19.6 km/h 98 % 0 mm
13:19 -15.1 °C -15 °C 34097 hPa SSW 15 km/h 19.6 km/h 98 % 0 mm
13:22 -15.1 °C -15 °C 34097 hPa SSW 9.8 km/h 16.9 km/h 98 % 0 mm
13:23 -15.1 °C -15 °C 34097 hPa SSW 12.7 km/h 17.9 km/h 98 % 0 mm
13:24 -15.1 °C -15 °C 34097 hPa SSE 9.3 km/h 17.9 km/h 98 % 0 mm
13:25 -15.1 °C -15 °C 34097 hPa SSW 7.6 km/h 17.9 km/h 98 % 0 mm
13:26 -15.1 °C -15 °C 34097 hPa South 11.1 km/h 20.3 km/h 98 % 0 mm
13:28 -15.1 °C -15 °C 34097 hPa SSE 9.3 km/h 20.3 km/h 98 % 0 mm
13:29 -15.1 °C -15 °C 34097 hPa South 14 km/h 20.3 km/h 98 % 0 mm
13:30 -15.1 °C -15 °C 34097 hPa South 12.7 km/h 20.3 km/h 98 % 0 mm
13:31 -15.1 °C -15 °C 34097 hPa South 15.6 km/h 20.3 km/h 98 % 0 mm
13:32 -15.1 °C -15 °C 34097 hPa South 15.6 km/h 20.3 km/h 98 % 0 mm
13:33 -15 °C -15 °C 34097 hPa South 15.6 km/h 20.3 km/h 98 % 0 mm
13:39 -15 °C -15 °C 34097 hPa SSE 6.9 km/h 17.4 km/h 98 % 0 mm
13:40 -15 °C -15 °C 34097 hPa South 6.9 km/h 17.4 km/h 98 % 0 mm
13:43 -15 °C -15 °C 34097 hPa South 9.8 km/h 16.3 km/h 98 % 0 mm
13:46 -14.9 °C -15 °C 34097 hPa South 4.2 km/h 16.3 km/h 98 % 0 mm
13:47 -14.9 °C -15 °C 34097 hPa South 7.6 km/h 14.5 km/h 98 % 0 mm
13:48 -14.9 °C -15 °C 34097 hPa SSE 9.3 km/h 14.5 km/h 98 % 0 mm
13:51 -14.9 °C -15 °C 34097 hPa SSW 7.6 km/h 14 km/h 98 % 0 mm
13:53 -14.9 °C -15 °C 34097 hPa SSE 8 km/h 14 km/h 98 % 0 mm
13:54 -14.9 °C -15 °C 34097 hPa South 9.8 km/h 14 km/h 98 % 0 mm
13:55 -14.9 °C -15 °C 34097 hPa Calm   14 km/h 98 % 0 mm
13:57 -14.9 °C -15 °C 34097 hPa South 9.8 km/h 12.7 km/h 98 % 0 mm
13:58 -14.9 °C -15 °C 34097 hPa Calm   12.7 km/h 98 % 0 mm
14:00 -14.8 °C -14.4 °C 34097 hPa Calm   9.8 km/h 98 % 0 mm
14:01 -14.8 °C -14.4 °C 34097 hPa South 4.2 km/h 9.8 km/h 98 % 0 mm
14:03 -14.8 °C -14.4 °C 34097 hPa South 10.3 km/h 14.5 km/h 98 % 0 mm
14:05 -14.8 °C -14.4 °C 34097 hPa SSE 14 km/h 20.9 km/h 98 % 0 mm
14:06 -14.8 °C -14.4 °C 34097 hPa South 12.7 km/h 20.9 km/h 98 % 0 mm
14:07 -14.8 °C -14.4 °C 34097 hPa SSW 9.8 km/h 20.9 km/h 98 % 0 mm
14:08 -14.8 °C -14.4 °C 34097 hPa Calm   20.9 km/h 98 % 0 mm
14:09 -14.8 °C -14.4 °C 34097 hPa Calm   20.9 km/h 98 % 0 mm
14:10 -14.8 °C -14.4 °C 34097 hPa SSW 8.9 km/h 20.9 km/h 98 % 0 mm
14:11 -14.8 °C -14.4 °C 34097 hPa South 7.6 km/h 20.9 km/h 98 % 0 mm
14:12 -14.8 °C -14.4 °C 34097 hPa SSW 12.7 km/h 20.9 km/h 98 % 0 mm
14:15 -14.8 °C -14.4 °C 34097 hPa South 6.9 km/h 16.9 km/h 98 % 0 mm
14:16 -14.8 °C -14.4 °C 34097 hPa South 5.1 km/h 16.9 km/h 98 % 0 mm
14:17 -14.8 °C -14.4 °C 34097 hPa South 5.1 km/h 16.9 km/h 98 % 0 mm
14:18 -14.8 °C -14.4 °C 34097 hPa SSW 7.6 km/h 16.9 km/h 98 % 0 mm
14:20 -14.8 °C -14.4 °C 34097 hPa SW 5.6 km/h 16.9 km/h 98 % 0 mm
14:22 -14.8 °C -14.4 °C 34097 hPa SSW 10.3 km/h 16.9 km/h 98 % 0 mm
14:24 -14.7 °C -14.4 °C 34097 hPa South 10.3 km/h 15 km/h 98 % 0 mm
14:25 -14.7 °C -14.4 °C 34063.2 hPa SSW 9.8 km/h 16.3 km/h 98 % 0 mm
14:26 -14.7 °C -14.4 °C 34063.2 hPa South 15 km/h 16.3 km/h 98 % 0 mm
14:27 -14.7 °C -14.4 °C 34063.2 hPa Calm   16.3 km/h 98 % 0 mm
14:30 -14.7 °C -14.4 °C 34063.2 hPa South 16.3 km/h 16.3 km/h 98 % 0 mm
14:31 -14.7 °C -14.4 °C 34063.2 hPa South 12.7 km/h 16.3 km/h 98 % 0 mm
14:32 -14.7 °C -14.4 °C 34063.2 hPa SSW 11.1 km/h 16.3 km/h 98 % 0 mm
14:33 -14.7 °C -14.4 °C 34063.2 hPa SSW 10.3 km/h 16.3 km/h 98 % 0 mm
14:34 -14.7 °C -14.4 °C 34063.2 hPa SSW 9.8 km/h 16.3 km/h 98 % 0 mm
14:35 -14.7 °C -14.4 °C 34063.2 hPa South 15 km/h 16.3 km/h 98 % 0 mm
14:36 -14.7 °C -14.4 °C 34063.2 hPa South 15 km/h 16.3 km/h 98 % 0 mm
14:37 -14.7 °C -14.4 °C 34063.2 hPa South 15.6 km/h 20.3 km/h 98 % 0 mm
14:40 -14.7 °C -14.4 °C 34063.2 hPa South 14 km/h 23 km/h 98 % 0 mm
14:42 -14.7 °C -14.4 °C 34063.2 hPa SSW 15.6 km/h 26.7 km/h 98 % 0 mm
14:44 -14.7 °C -14.4 °C 34063.2 hPa SSE 9.8 km/h 26.7 km/h 98 % 0 mm
14:45 -14.7 °C -14.4 °C 34063.2 hPa South 10.3 km/h 26.7 km/h 98 % 0 mm
14:46 -14.7 °C -14.4 °C 34063.2 hPa South 8.9 km/h 26.7 km/h 98 % 0 mm
14:48 -14.7 °C -14.4 °C 34063.2 hPa SSE 11.1 km/h 26.7 km/h 98 % 0 mm
14:50 -14.7 °C -14.4 °C 34063.2 hPa SSE 9.3 km/h 26.7 km/h 98 % 0 mm
14:52 -14.7 °C -14.4 °C 34063.2 hPa SSE 8 km/h 19.2 km/h 98 % 0 mm
14:54 -14.7 °C -14.4 °C 34063.2 hPa SSE 2.9 km/h 19.2 km/h 98 % 0 mm
14:56 -14.7 °C -14.4 °C 34063.2 hPa SSW 5.1 km/h 16.9 km/h 98 % 0 mm
14:57 -14.7 °C -14.4 °C 34063.2 hPa SSE 14.5 km/h 16.9 km/h 98 % 0 mm
14:59 -14.7 °C -14.4 °C 34063.2 hPa Calm   16.9 km/h 98 % 0 mm
15:01 -14.7 °C -14.4 °C 34063.2 hPa South 15.6 km/h 16.9 km/h 98 % 0 mm
15:03 -14.7 °C -14.4 °C 34063.2 hPa Calm   16.9 km/h 98 % 0 mm
15:04 -14.7 °C -14.4 °C 34063.2 hPa South 10.3 km/h 16.9 km/h 98 % 0 mm
15:05 -14.6 °C -14.4 °C 34063.2 hPa South 20.9 km/h 20.9 km/h 98 % 0 mm
15:07 -14.6 °C -14.4 °C 34063.2 hPa South 10.3 km/h 25.4 km/h 98 % 0 mm
15:09 -14.6 °C -14.4 °C 34063.2 hPa SSW 15 km/h 25.4 km/h 98 % 0 mm
15:10 -14.6 °C -14.4 °C 34063.2 hPa SSE 5.1 km/h 25.4 km/h 98 % 0 mm
15:11 -14.6 °C -14.4 °C 34063.2 hPa SSW 15 km/h 25.4 km/h 98 % 0 mm
15:12 -14.6 °C -14.4 °C 34063.2 hPa SSW 8.9 km/h 25.4 km/h 98 % 0 mm
15:13 -14.6 °C -14.4 °C 34063.2 hPa South 9.8 km/h 25.4 km/h 98 % 0 mm
15:14 -14.6 °C -14.4 °C 34063.2 hPa South 6.4 km/h 25.4 km/h 98 % 0 mm
15:15 -14.6 °C -14.4 °C 34063.2 hPa South 18.7 km/h 25.4 km/h 98 % 0 mm
15:16 -14.6 °C -14.4 °C 34063.2 hPa South 18.7 km/h 25.4 km/h 98 % 0 mm
15:17 -14.6 °C -14.4 °C 34063.2 hPa SSW 10.3 km/h 25.4 km/h 98 % 0 mm
15:18 -14.6 °C -14.4 °C 34063.2 hPa SSW 14.5 km/h 22 km/h 98 % 0 mm
15:19 -14.6 °C -14.4 °C 34063.2 hPa SSW 16.9 km/h 22 km/h 98 % 0 mm
15:20 -14.6 °C -14.4 °C 34063.2 hPa South 9.3 km/h 22 km/h 98 % 0 mm
15:22 -14.6 °C -14.4 °C 34063.2 hPa South 23 km/h 23 km/h 98 % 0 mm
15:23 -14.6 °C -14.4 °C 34063.2 hPa SSW 16.9 km/h 23 km/h 98 % 0 mm
15:24 -14.6 °C -14.4 °C 34063.2 hPa SSW 8.9 km/h 23 km/h 98 % 0 mm
15:25 -14.6 °C -14.4 °C 34063.2 hPa SSW 16.3 km/h 23 km/h 98 % 0 mm
15:26 -14.6 °C -14.4 °C 34063.2 hPa SW 8.9 km/h 23 km/h 98 % 0 mm
15:27 -14.6 °C -14.4 °C 34063.2 hPa SSW 7.6 km/h 23 km/h 98 % 0 mm
15:30 -14.6 °C -14.4 °C 34063.2 hPa Calm   23 km/h 98 % 0 mm
15:32 -14.6 °C -14.4 °C 34063.2 hPa WSW 14.5 km/h 23 km/h 98 % 0 mm
15:33 -14.6 °C -14.4 °C 34063.2 hPa SSW 14 km/h 20.9 km/h 98 % 0 mm
15:34 -14.6 °C -14.4 °C 34063.2 hPa SW 14.5 km/h 20.9 km/h 98 % 0 mm
15:36 -14.6 °C -14.4 °C 34063.2 hPa South 15 km/h 20.9 km/h 98 % 0 mm
15:38 -14.6 °C -14.4 °C 34063.2 hPa SSW 10.3 km/h 27.7 km/h 98 % 0 mm
15:39 -14.6 °C -14.4 °C 34063.2 hPa SW 16.3 km/h 27.7 km/h 98 % 0 mm
15:40 -14.6 °C -14.4 °C 34097 hPa SW 14.5 km/h 27.7 km/h 98 % 0 mm
15:43 -14.6 °C -14.4 °C 34097 hPa SSW 11.6 km/h 27.7 km/h 98 % 0 mm
15:44 -14.6 °C -14.4 °C 34097 hPa SW 9.8 km/h 27.7 km/h 98 % 0 mm
15:46 -14.6 °C -14.4 °C 34097 hPa SW 19.2 km/h 27.7 km/h 98 % 0 mm
15:47 -14.6 °C -14.4 °C 34097 hPa SSW 18.7 km/h 26.7 km/h 98 % 0 mm
15:48 -14.6 °C -14.4 °C 34097 hPa SSW 16.3 km/h 26.7 km/h 98 % 0 mm
15:49 -14.6 °C -14.4 °C 34097 hPa SSW 22 km/h 26.7 km/h 98 % 0 mm
15:50 -14.6 °C -14.4 °C 34097 hPa SW 15 km/h 26.7 km/h 98 % 0 mm
15:51 -14.6 °C -14.4 °C 34097 hPa SSW 16.3 km/h 26.7 km/h 98 % 0 mm
15:55 -14.6 °C -14.4 °C 34097 hPa SW 22.5 km/h 26.7 km/h 98 % 0 mm
15:57 -14.6 °C -14.4 °C 34063.2 hPa SW 14 km/h 22.5 km/h 98 % 0 mm
15:58 -14.6 °C -14.4 °C 34063.2 hPa SSW 17.9 km/h 22.5 km/h 98 % 0 mm
15:59 -14.6 °C -14.4 °C 34063.2 hPa WSW 15.6 km/h 22.5 km/h 98 % 0 mm
16:04 -14.6 °C -14.4 °C 34063.2 hPa SSW 15.6 km/h 27.7 km/h 98 % 0 mm
16:06 -14.6 °C -14.4 °C 34063.2 hPa SSW 18.7 km/h 27.7 km/h 98 % 0 mm
16:08 -14.6 °C -14.4 °C 34063.2 hPa SSW 14.5 km/h 27.7 km/h 98 % 0 mm
16:09 -14.6 °C -14.4 °C 34063.2 hPa SSW 26.7 km/h 27.7 km/h 98 % 0 mm
16:10 -14.6 °C -14.4 °C 34063.2 hPa SW 15 km/h 27.7 km/h 98 % 0 mm
16:11 -14.6 °C -14.4 °C 34097 hPa South 14 km/h 26.7 km/h 98 % 0 mm
16:12 -14.6 °C -14.4 °C 34097 hPa SW 15 km/h 26.7 km/h 98 % 0 mm
16:13 -14.6 °C -14.4 °C 34097 hPa South 15 km/h 26.7 km/h 98 % 0 mm
16:14 -14.6 °C -14.4 °C 34097 hPa SW 22.5 km/h 26.7 km/h 98 % 0 mm
16:15 -14.6 °C -14.4 °C 34097 hPa SSW 16.9 km/h 26.7 km/h 98 % 0 mm
16:16 -14.6 °C -14.4 °C 34097 hPa SW 16.9 km/h 26.7 km/h 98 % 0 mm
16:17 -14.6 °C -14.4 °C 34097 hPa SW 8 km/h 26.7 km/h 98 % 0 mm
16:20 -14.6 °C -14.4 °C 34097 hPa SW 14 km/h 26.2 km/h 98 % 0 mm
16:25 -14.6 °C -14.4 °C 34097 hPa SSW 14 km/h 24.8 km/h 98 % 0 mm
16:26 -14.6 °C -14.4 °C 34097 hPa WSW 12.7 km/h 24.8 km/h 98 % 0 mm
16:27 -14.6 °C -14.4 °C 34097 hPa SW 12.2 km/h 24.8 km/h 98 % 0 mm
16:28 -14.6 °C -14.4 °C 34097 hPa SW 16.9 km/h 24.8 km/h 98 % 0 mm
16:29 -14.6 °C -14.4 °C 34097 hPa SW 14.5 km/h 24.8 km/h 98 % 0 mm
16:30 -14.6 °C -14.4 °C 34097 hPa SSW 14.5 km/h 20.9 km/h 98 % 0 mm
16:32 -14.6 °C -14.4 °C 34097 hPa SSW 14 km/h 20.3 km/h 98 % 0 mm
16:33 -14.6 °C -14.4 °C 34097 hPa SSW 16.9 km/h 20.3 km/h 98 % 0 mm
16:34 -14.6 °C -14.4 °C 34097 hPa SW 18.7 km/h 20.3 km/h 98 % 0 mm
16:35 -14.6 °C -14.4 °C 34097 hPa SW 17.9 km/h 20.3 km/h 98 % 0 mm
16:36 -14.6 °C -14.4 °C 34097 hPa SW 15.6 km/h 20.3 km/h 98 % 0 mm
16:37 -14.6 °C -14.4 °C 34097 hPa SSW 16.3 km/h 22.5 km/h 98 % 0 mm
16:39 -14.6 °C -14.4 °C 34097 hPa SSW 10.3 km/h 22.5 km/h 98 % 0 mm
16:40 -14.6 °C -14.4 °C 34097 hPa SW 15.6 km/h 22.5 km/h 98 % 0 mm
16:41 -14.6 °C -14.4 °C 34097 hPa SSW 14.5 km/h 22.5 km/h 98 % 0 mm
16:42 -14.6 °C -14.4 °C 34097 hPa SW 10.3 km/h 22.5 km/h 98 % 0 mm
16:43 -14.6 °C -14.4 °C 34097 hPa WSW 11.1 km/h 22.5 km/h 98 % 0 mm
16:44 -14.6 °C -14.4 °C 34097 hPa Calm   22.5 km/h 98 % 0 mm
16:45 -14.6 °C -14.4 °C 34097 hPa WSW 11.6 km/h 22.5 km/h 98 % 0 mm
16:46 -14.6 °C -14.4 °C 34097 hPa SSW 12.7 km/h 22.5 km/h 98 % 0 mm
16:48 -14.6 °C -14.4 °C 34097 hPa SW 14 km/h 16.3 km/h 98 % 0 mm
16:49 -14.6 °C -14.4 °C 34097 hPa South 12.7 km/h 16.3 km/h 98 % 0 mm
16:50 -14.6 °C -14.4 °C 34097 hPa SSW 9.8 km/h 16.3 km/h 98 % 0 mm
16:51 -14.6 °C -14.4 °C 34097 hPa SSW 9.3 km/h 15.6 km/h 98 % 0 mm
16:53 -14.6 °C -14.4 °C 34097 hPa SSW 9.3 km/h 15.6 km/h 98 % 0 mm
16:58 -14.6 °C -14.4 °C 34097 hPa SSW 14.5 km/h 15.6 km/h 98 % 0 mm
17:00 -14.7 °C -14.4 °C 34097 hPa Calm   16.9 km/h 98 % 0 mm
17:01 -14.7 °C -14.4 °C 34097 hPa SW 15 km/h 16.9 km/h 98 % 0 mm
17:02 -14.7 °C -14.4 °C 34097 hPa SW 9.8 km/h 16.9 km/h 98 % 0 mm
17:03 -14.7 °C -14.4 °C 34097 hPa WSW 15 km/h 16.9 km/h 98 % 0 mm
17:04 -14.7 °C -14.4 °C 34097 hPa SSW 14 km/h 16.9 km/h 98 % 0 mm
17:06 -14.7 °C -14.4 °C 34097 hPa WSW 14.5 km/h 20.3 km/h 98 % 0 mm
17:09 -14.7 °C -14.4 °C 34097 hPa SSW 20.9 km/h 22.5 km/h 98 % 0 mm
17:10 -14.7 °C -14.4 °C 34097 hPa SSW 15.6 km/h 22.5 km/h 98 % 0 mm
17:13 -14.7 °C -14.4 °C 34097 hPa SW 11.6 km/h 22.5 km/h 98 % 0 mm
17:14 -14.7 °C -14.4 °C 34097 hPa SW 12.7 km/h 22.5 km/h 98 % 0 mm
17:17 -14.7 °C -14.4 °C 34097 hPa WSW 16.3 km/h 22.5 km/h 98 % 0 mm
17:18 -14.7 °C -14.4 °C 34097 hPa WSW 19.2 km/h 20.9 km/h 98 % 0 mm
17:19 -14.7 °C -14.4 °C 34097 hPa SSW 15.6 km/h 20.9 km/h 98 % 0 mm
17:21 -14.7 °C -14.4 °C 34097 hPa SW 16.9 km/h 24.8 km/h 98 % 0 mm
17:22 -14.7 °C -14.4 °C 34097 hPa SW 11.1 km/h 24.8 km/h 98 % 0 mm
17:23 -14.7 °C -14.4 °C 34097 hPa SW 9.8 km/h 24.8 km/h 98 % 0 mm
17:24 -14.7 °C -14.4 °C 34097 hPa SSW 12.2 km/h 24.8 km/h 98 % 0 mm
17:26 -14.7 °C -14.4 °C 34097 hPa SSW 14 km/h 24.8 km/h 98 % 0 mm
17:27 -14.7 °C -14.4 °C 34097 hPa SW 11.1 km/h 24.8 km/h 98 % 0 mm
17:28 -14.7 °C -14.4 °C 34097 hPa SSW 10.3 km/h 24.8 km/h 98 % 0 mm
17:30 -14.7 °C -14.4 °C 34097 hPa SSW 9.3 km/h 22.5 km/h 98 % 0 mm
17:31 -14.7 °C -14.4 °C 34097 hPa WSW 11.1 km/h 22 km/h 98 % 0 mm
17:32 -14.7 °C -14.4 °C 34097 hPa SW 16.3 km/h 19.2 km/h 98 % 0 mm
17:33 -14.7 °C -14.4 °C 34097 hPa SW 14 km/h 18.7 km/h 98 % 0 mm
17:34 -14.7 °C -14.4 °C 34097 hPa South 15.6 km/h 18.7 km/h 98 % 0 mm
17:35 -14.7 °C -14.4 °C 34097 hPa Calm   18.7 km/h 98 % 0 mm
17:38 -14.7 °C -14.4 °C 34097 hPa Calm   16.3 km/h 98 % 0 mm
17:39 -14.7 °C -14.4 °C 34097 hPa SW 14.5 km/h 16.3 km/h 98 % 0 mm
17:41 -14.7 °C -14.4 °C 34097 hPa SSW 12.7 km/h 16.3 km/h 98 % 0 mm
17:42 -14.7 °C -14.4 °C 34097 hPa SSW 15 km/h 16.3 km/h 98 % 0 mm
17:43 -14.7 °C -14.4 °C 34097 hPa Calm   16.3 km/h 98 % 0 mm
17:44 -14.7 °C -14.4 °C 34097 hPa Calm   16.3 km/h 98 % 0 mm
17:45 -14.7 °C -14.4 °C 34097 hPa Calm   16.3 km/h 98 % 0 mm
17:46 -14.7 °C -14.4 °C 34097 hPa Calm   16.3 km/h 98 % 0 mm
17:48 -14.7 °C -14.4 °C 34097 hPa Calm   15.6 km/h 98 % 0 mm
17:51 -14.7 °C -14.4 °C 34097 hPa Calm   15 km/h 98 % 0 mm
17:52 -14.8 °C -14.4 °C 34097 hPa SW 11.1 km/h 14.5 km/h 98 % 0 mm
17:53 -14.8 °C -14.4 °C 34097 hPa SSW 12.7 km/h 14.5 km/h 98 % 0 mm
17:54 -14.8 °C -14.4 °C 34097 hPa SW 9.3 km/h 12.7 km/h 98 % 0 mm
17:58 -14.8 °C -14.4 °C 34097 hPa SW 9.3 km/h 15 km/h 98 % 0 mm
17:59 -14.8 °C -14.4 °C 34097 hPa SW 8.9 km/h 15 km/h 98 % 0 mm
18:00 -14.8 °C -14.4 °C 34097 hPa SSW 10.3 km/h 15 km/h 98 % 0 mm
18:01 -14.8 °C -14.4 °C 34097 hPa SSW 8.9 km/h 15 km/h 98 % 0 mm
18:03 -14.8 °C -14.4 °C 34097 hPa Calm   15 km/h 98 % 0 mm
18:04 -14.8 °C -14.4 °C 34097 hPa SW 8.9 km/h 15 km/h 98 % 0 mm
18:06 -14.8 °C -14.4 °C 34097 hPa SSW 6.4 km/h 15 km/h 98 % 0 mm
18:07 -14.8 °C -14.4 °C 34097 hPa Calm   12.7 km/h 98 % 0 mm
18:08 -14.8 °C -14.4 °C 34097 hPa Calm   12.7 km/h 98 % 0 mm
18:09 -14.8 °C -14.4 °C 34097 hPa SSW 6.9 km/h 12.7 km/h 98 % 0 mm
18:10 -14.8 °C -14.4 °C 34097 hPa Calm   12.7 km/h 98 % 0 mm
18:11 -14.8 °C -14.4 °C 34097 hPa Calm   12.7 km/h 98 % 0 mm
18:12 -14.8 °C -14.4 °C 34097 hPa SSW 3.4 km/h 12.7 km/h 98 % 0 mm
18:13 -14.8 °C -14.4 °C 34097 hPa South 14 km/h 14 km/h 98 % 0 mm
18:14 -14.8 °C -14.4 °C 34097 hPa South 10.3 km/h 16.9 km/h 98 % 0 mm
18:16 -14.7 °C -14.4 °C 34097 hPa SSW 8 km/h 16.9 km/h 98 % 0 mm
18:17 -14.7 °C -14.4 °C 34097 hPa SSW 6.9 km/h 16.9 km/h 98 % 0 mm
18:18 -14.7 °C -14.4 °C 34097 hPa SSW 6.9 km/h 16.9 km/h 98 % 0 mm
18:22 -14.7 °C -14.4 °C 34097 hPa SSW 8.9 km/h 16.9 km/h 98 % 0 mm
18:24 -14.7 °C -14.4 °C 34097 hPa SSW 9.8 km/h 16.9 km/h 98 % 0 mm
18:26 -14.7 °C -14.4 °C 34097 hPa South 7.6 km/h 16.9 km/h 98 % 0 mm
18:27 -14.7 °C -14.4 °C 34097 hPa SSW 9.8 km/h 16.9 km/h 98 % 0 mm
18:28 -14.7 °C -14.4 °C 34097 hPa Calm   16.9 km/h 98 % 0 mm
18:33 -14.7 °C -14.4 °C 34097 hPa Calm   16.3 km/h 98 % 0 mm
18:39 -14.7 °C -14.4 °C 34097 hPa Calm   16.3 km/h 98 % 0 mm
18:46 -14.7 °C -14.4 °C 34097 hPa SSW 15.6 km/h 16.3 km/h 98 % 0 mm
18:50 -14.7 °C -14.4 °C 34097 hPa SSW 6.4 km/h 16.3 km/h 98 % 0 mm
18:55 -14.7 °C -14.4 °C 34097 hPa SSW 9.8 km/h 16.9 km/h 98 % 0 mm
18:57 -14.7 °C -14.4 °C 34097 hPa SW 9.3 km/h 16.9 km/h 98 % 0 mm
18:58 -14.7 °C -14.4 °C 34097 hPa SSW 11.1 km/h 16.9 km/h 98 % 0 mm
18:59 -14.7 °C -14.4 °C 34097 hPa SSW 9.3 km/h 16.9 km/h 98 % 0 mm
19:00 -14.7 °C -14.4 °C 34097 hPa SSW 7.6 km/h 16.9 km/h 98 % 0 mm
19:05 -14.7 °C -14.4 °C 34097 hPa Calm   16.3 km/h 98 % 0 mm
19:06 -14.7 °C -14.4 °C 34097 hPa WSW 8.9 km/h 14.5 km/h 98 % 0 mm
19:13 -14.7 °C -14.4 °C 34097 hPa SSW 6.4 km/h 16.9 km/h 98 % 0 mm
19:20 -14.6 °C -14.4 °C 34097 hPa South 8 km/h 16.3 km/h 98 % 0 mm
19:22 -14.6 °C -14.4 °C 34097 hPa SW 10.3 km/h 16.3 km/h 98 % 0 mm
19:24 -14.6 °C -14.4 °C 34097 hPa Calm   16.3 km/h 98 % 0 mm
19:25 -14.6 °C -14.4 °C 34097 hPa Calm   16.3 km/h 98 % 0 mm
19:27 -14.6 °C -14.4 °C 34097 hPa Calm   16.3 km/h 98 % 0 mm
19:28 -14.6 °C -14.4 °C 34097 hPa Calm   16.3 km/h 98 % 0 mm
19:34 -14.6 °C -14.4 °C 34097 hPa Calm   12.7 km/h 98 % 0 mm
19:35 -14.6 °C -14.4 °C 34097 hPa Calm   12.7 km/h 98 % 0 mm
19:37 -14.6 °C -14.4 °C 34097 hPa Calm   15 km/h 98 % 0 mm
19:38 -14.6 °C -14.4 °C 34097 hPa Calm   15 km/h 98 % 0 mm
19:41 -14.6 °C -14.4 °C 34097 hPa SSW 9.8 km/h 15 km/h 98 % 0 mm
19:46 -14.6 °C -14.4 °C 34063.2 hPa Calm   11.1 km/h 98 % 0 mm
19:51 -14.6 °C -14.4 °C 34063.2 hPa Calm   11.1 km/h 98 % 0 mm
19:52 -14.6 °C -14.4 °C 34063.2 hPa Calm   11.1 km/h 98 % 0 mm
19:56 -14.6 °C -14.4 °C 34097 hPa Calm   9.8 km/h 98 % 0 mm
20:02 -14.6 °C -14.4 °C 34097 hPa Calm   10.3 km/h 98 % 0 mm
20:04 -14.6 °C -14.4 °C 34097 hPa Calm   10.3 km/h 98 % 0 mm
20:09 -14.6 °C -14.4 °C 34097 hPa South 2.3 km/h 8.9 km/h 98 % 0 mm
20:14 -14.6 °C -14.4 °C 34097 hPa Calm   6.4 km/h 98 % 0 mm
20:18 -14.6 °C -14.4 °C 34097 hPa South 2.3 km/h 5.6 km/h 98 % 0 mm
20:24 -14.6 °C -14.4 °C 34097 hPa Calm   5.1 km/h 98 % 0 mm
20:29 -14.6 °C -14.4 °C 34097 hPa Calm   5.1 km/h 98 % 0 mm
20:34 -14.6 °C -14.4 °C 34097 hPa SSE 4.2 km/h 6.9 km/h 98 % 0 mm
20:39 -14.6 °C -14.4 °C 34097 hPa Calm   6.9 km/h 98 % 0 mm
20:44 -14.6 °C -14.4 °C 34097 hPa Calm     98 % 0 mm
20:56 -14.6 °C -14.4 °C 34097 hPa Calm   2.3 km/h 98 % 0 mm
21:01 -14.6 °C -14.4 °C 34097 hPa Calm   8 km/h 98 % 0 mm
21:06 -14.6 °C -14.4 °C 34097 hPa Calm   8 km/h 98 % 0 mm
21:12 -14.5 °C -14.4 °C 34097 hPa Calm   6.4 km/h 98 % 0 mm
21:18 -14.5 °C -14.4 °C 34097 hPa Calm   2.3 km/h 98 % 0 mm
21:23 -14.5 °C -14.4 °C 34097 hPa Calm   3.4 km/h 98 % 0 mm
21:29 -14.4 °C -14.4 °C 34097 hPa Calm     98 % 0 mm
21:33 -14.4 °C -14.4 °C 34097 hPa Calm     98 % 0 mm
21:35 -14.4 °C -14.4 °C 34097 hPa Calm     98 % 0 mm
21:37 -14.4 °C -14.4 °C 34097 hPa Calm     98 % 0 mm
21:42 -14.4 °C -14.4 °C 34097 hPa Calm     98 % 0 mm
21:43 -14.4 °C -14.4 °C 34097 hPa Calm     98 % 0 mm
21:44 -14.4 °C -14.4 °C 34097 hPa Calm   5.6 km/h 98 % 0 mm
21:46 -14.4 °C -14.4 °C 34097 hPa Calm   5.6 km/h 98 % 0 mm
21:50 -14.4 °C -14.4 °C 34097 hPa Calm   12.2 km/h 98 % 0 mm
21:52 -14.4 °C -14.4 °C 34097 hPa Calm   12.2 km/h 98 % 0 mm
21:53 -14.4 °C -14.4 °C 34097 hPa SSE 5.1 km/h 12.2 km/h 98 % 0 mm
21:59 -14.3 °C -14.4 °C 34097 hPa Calm   12.2 km/h 98 % 0 mm
22:01 -14.3 °C -14.4 °C 34097 hPa Calm   5.1 km/h 98 % 0 mm
22:02 -14.3 °C -14.4 °C 34097 hPa Calm   5.1 km/h 98 % 0 mm
22:08 -14.3 °C -14.4 °C 34097 hPa Calm   5.1 km/h 98 % 0 mm
22:13 -14.3 °C -14.4 °C 34097 hPa South 6.4 km/h 6.4 km/h 98 % 0 mm
22:20 -14.2 °C -14.4 °C 34097 hPa South 5.1 km/h 8.9 km/h 98 % 0 mm
22:27 -14.2 °C -13.9 °C 34063.2 hPa Calm   9.3 km/h 98 % 0 mm
22:32 -14.1 °C -13.9 °C 34063.2 hPa SSW 5.1 km/h 7.6 km/h 98 % 0 mm
22:36 -14.1 °C -13.9 °C 34063.2 hPa Calm   8.9 km/h 98 % 0 mm
22:44 -14 °C -13.9 °C 34097 hPa SSE 5.1 km/h 9.8 km/h 98 % 0 mm
22:47 -14 °C -13.9 °C 34097 hPa Calm   9.8 km/h 98 % 0 mm
22:55 -13.9 °C -13.9 °C 34097 hPa Calm   6.9 km/h 98 % 0 mm
22:57 -13.9 °C -13.9 °C 34097 hPa Calm   5.6 km/h 98 % 0 mm
23:03 -13.9 °C -13.9 °C 34097 hPa South 6.4 km/h 9.8 km/h 98 % 0 mm
23:09 -13.8 °C -13.9 °C 34097 hPa Calm   12.7 km/h 98 % 0 mm
23:14 -13.8 °C -13.9 °C 34097 hPa South 3.4 km/h 14 km/h 98 % 0 mm
23:17 -13.8 °C -13.9 °C 34097 hPa Calm   14 km/h 98 % 0 mm
23:23 -13.8 °C -13.9 °C 34097 hPa South 9.3 km/h 15.6 km/h 98 % 0 mm
23:28 -13.8 °C -13.9 °C 34063.2 hPa South 5.1 km/h 15.6 km/h 98 % 0 mm
23:29 -13.8 °C -13.9 °C 34063.2 hPa Calm   15.6 km/h 98 % 0 mm
23:30 -13.8 °C -13.9 °C 34063.2 hPa Calm   15.6 km/h 98 % 0 mm
23:35 -13.7 °C -13.9 °C 34063.2 hPa Calm   14.5 km/h 98 % 0 mm
23:38 -13.7 °C -13.9 °C 34063.2 hPa South 3.4 km/h 12.7 km/h 98 % 0 mm
23:44 -13.7 °C -13.9 °C 34063.2 hPa SSE 9.3 km/h 18.7 km/h 98 % 0 mm
23:49 -13.7 °C -13.9 °C 34063.2 hPa SSE 8.9 km/h 16.3 km/h 98 % 0 mm
23:51 -13.7 °C -13.9 °C 34063.2 hPa Calm   16.3 km/h 98 % 0 mm
23:53 -13.7 °C -13.9 °C 34063.2 hPa SSW 10.3 km/h 16.3 km/h 98 % 0 mm
23:56 -13.7 °C -13.9 °C 34063.2 hPa Calm   15.6 km/h 98 % 0 mm
Le Gheer Warneton
Courtoisie de Weather Underground - 5 mb

Mise a jour : 18/02/2018 20:58:11
Généré par Cumulus 1.9.4 (1099)